Location: Newark
(45.8511°N, 10.8245°E)
Time: 08:29:02
(UTC+00:00)

OTV 5 (USA 277) - Pass Details

Date: 27 August 2019
Orbit: 295 x 339 km, 54.5° (Epoch: 08 September)

Event Time Altitude Azimuth Distance (km) Brightness Sun altitude
Rises 20:12:06 0° 274° (W) 1,997 ? -20.4°
Reaches altitude 10° 20:14:23 10° 295° (WNW) 1,169 ? -20.7°
Maximum altitude 20:16:18 18° 342° (NNW) 826 ? -20.9°
Enters shadow 20:17:08 16° 8° (N) 901 ? -21.0°
